,,,PA_Meas_PMT16A,,PR_Meas_QMR101_102,,RH_Meas_QMH101,,SR_Meas_QMS101,,TA_Meas_QMH101,,GenWind,,GenWind,
date,time,status,PA,status,PR,status,RH,status,SR,status,TA,status,DirAvg,status,SpdAvg,
2011-11-28, 00:00:04,VALID,997.758,VALID,0,VALID,94.4776,VALID,0,VALID,23.7988,VALID,150,VALID,0.437109,
2011-11-28, 00:01:04,VALID,997.741,VALID,0,VALID,94.5157,VALID,0,VALID,23.8183,VALID,150,VALID,0.420312,
2011-11-28, 00:02:04,VALID,997.752,VALID,0,VALID,94.4852,VALID,0,VALID,23.8183,VALID,150,VALID,0.404297,
2011-11-28, 00:03:04,VALID,997.72,VALID,0,VALID,94.47,VALID,0,VALID,23.7988,VALID,150,VALID,0.157422,
2011-11-28, 00:04:04,VALID,997.722,VALID,0,VALID,94.5005,VALID,0,VALID,23.7988,VALID,150,VALID,0,
2011-11-28, 00:05:04,VALID,997.688,VALID,0,VALID,94.4928,VALID,0,VALID,23.7793,VALID,150,VALID,0.119922,
2011-11-28, 00:06:04,VALID,997.684,VALID,0,VALID,94.4928,VALID,0,VALID,23.7597,VALID,150,VALID,0.265625,
2011-11-28, 00:07:04,VALID,997.696,VALID,0,VALID,94.5005,VALID,0,VALID,23.7775,VALID,150,VALID,0.146875,
2011-11-28, 00:08:04,VALID,997.692,VALID,0,VALID,94.4623,VALID,0,VALID,23.7775,VALID,150,VALID,0.0515625,
2011-11-28, 00:09:04,VALID,997.685,VALID,0,VALID,94.4776,VALID,0,VALID,23.8183,VALID,150,VALID,0.254687,
2011-11-28, 00:10:04,VALID,997.694,VALID,0,VALID,94.4852,VALID,0,VALID,23.7597,VALID,150,VALID,0.183594,
2011-11-28, 00:11:04,VALID,997.693,VALID,0,VALID,94.5157,VALID,0,VALID,23.6604,VALID,150,VALID,0.178906,
2011-11-28, 00:12:04,VALID,997.702,VALID,0,VALID,94.5462,VALID,0.104696,VALID,23.6019,VALID,150,VALID,0.186328,
2011-11-28, 00:13:04,VALID,997.686,VALID,0,VALID,94.5539,VALID,0,VALID,23.6036,VALID,150,VALID,0.255078,
2011-11-28, 00:14:04,VALID,997.673,VALID,0,VALID,94.5539,VALID,0,VALID,23.5823,VALID,150,VALID,0.166406,
2011-11-28, 00:15:04,VALID,997.625,VALID,0,VALID,94.5615,VALID,0,VALID,23.5646,VALID,150,VALID,0.187891,
2011-11-28, 00:16:04,VALID,997.66,VALID,0,VALID,94.5462,VALID,0,VALID,23.5646,VALID,150,VALID,0.242188,
2011-11-28, 00:17:04,VALID,997.634,VALID,0,VALID,94.531,VALID,0,VALID,23.5841,VALID,150,VALID,0.164453,
2011-11-28, 00:18:04,VALID,997.598,VALID,0,VALID,94.5386,VALID,0,VALID,23.5433,VALID,150,VALID,0.267578,
2011-11-28, 00:19:04,VALID,997.597,VALID,0,VALID,94.5386,VALID,0,VALID,23.5841,VALID,150,VALID,0.335156,
2011-11-28, 00:20:04,VALID,997.582,VALID,0,VALID,94.5234,VALID,0,VALID,23.6036,VALID,150,VALID,0.247656,
2011-11-28, 00:21:04,VALID,997.569,VALID,0,VALID,94.5081,VALID,0,VALID,23.5841,VALID,150,VALID,0,
2011-11-28, 00:22:04,VALID,997.591,VALID,0,VALID,94.531,VALID,0,VALID,23.5841,VALID,150,VALID,0,
2011-11-28, 00:23:04,VALID,997.552,VALID,0,VALID,94.5234,VALID,0,VALID,23.5451,VALID,150,VALID,0,
2011-11-28, 00:24:04,VALID,997.581,VALID,0,VALID,94.5386,VALID,0,VALID,23.4848,VALID,150,VALID,0,
2011-11-28, 00:25:04,VALID,997.547,VALID,0,VALID,94.5539,VALID,0,VALID,23.4866,VALID,150,VALID,0,
2011-11-28, 00:26:04,VALID,997.485,VALID,0,VALID,94.5844,VALID,0,VALID,23.428,VALID,150,VALID,0,
2011-11-28, 00:27:04,VALID,997.462,VALID,0,VALID,94.5844,VALID,0,VALID,23.3695,VALID,150,VALID,0.494531,
2011-11-28, 00:28:04,VALID,997.448,VALID,0,VALID,94.592,VALID,0,VALID,23.3695,VALID,150,VALID,0.440234,
2011-11-28, 00:29:04,VALID,997.412,VALID,0,VALID,94.5844,VALID,0,VALID,23.3872,VALID,150,VALID,0.616406,
2011-11-28, 00:30:04,VALID,997.399,VALID,0,VALID,94.5844,VALID,0,VALID,23.428,VALID,53,VALID,0.727734,
2011-11-28, 00:31:04,VALID,997.381,VALID,0,VALID,94.5234,VALID,0,VALID,23.4866,VALID,53,VALID,0.701172,
2011-11-28, 00:32:04,VALID,997.4,VALID,0,VALID,94.531,VALID,0,VALID,23.4475,VALID,10,VALID,0.667188,
2011-11-28, 00:33:04,VALID,997.409,VALID,0,VALID,94.5462,VALID,0,VALID,23.3872,VALID,10,VALID,0.604688,
2011-11-28, 00:34:04,VALID,997.412,VALID,0,VALID,94.5234,VALID,0,VALID,23.4085,VALID,10,VALID,0.592188,
2011-11-28, 00:35:04,VALID,997.432,VALID,0,VALID,94.531,VALID,0,VALID,23.428,VALID,10,VALID,0.291406,
2011-11-28, 00:36:04,VALID,997.467,VALID,0,VALID,94.5234,VALID,0,VALID,23.4085,VALID,10,VALID,0.230078,
2011-11-28, 00:37:04,VALID,997.435,VALID,0,VALID,94.5462,VALID,0,VALID,23.4085,VALID,10,VALID,0,
2011-11-28, 00:38:04,VALID,997.447,VALID,0,VALID,94.531,VALID,0,VALID,23.4085,VALID,10,VALID,0,
2011-11-28, 00:39:04,VALID,997.427,VALID,0,VALID,94.531,VALID,0,VALID,23.428,VALID,10,VALID,0.239063,
2011-11-28, 00:40:05,VALID,997.468,VALID,0,VALID,94.5005,VALID,0,VALID,23.5043,VALID,10,VALID,0.608203,
2011-11-28, 00:41:05,VALID,997.454,VALID,0,VALID,94.5005,VALID,0,VALID,23.5451,VALID,10,VALID,0.612109,
2011-11-28, 00:42:05,VALID,997.461,VALID,0,VALID,94.4623,VALID,0,VALID,23.5841,VALID,10,VALID,0.575,
2011-11-28, 00:43:05,VALID,997.448,VALID,0,VALID,94.4776,VALID,0,VALID,23.5841,VALID,84,VALID,0.626562,
2011-11-28, 00:44:05,VALID,997.49,VALID,0,VALID,94.4852,VALID,0,VALID,23.5238,VALID,145,VALID,0.864844,
2011-11-28, 00:45:05,VALID,997.455,VALID,0,VALID,94.47,VALID,0,VALID,23.5238,VALID,154,VALID,0.713672,
2011-11-28, 00:46:05,VALID,997.435,VALID,0,VALID,94.5081,VALID,0,VALID,23.5256,VALID,154,VALID,0.496484,
2011-11-28, 00:47:05,VALID,997.39,VALID,0,VALID,94.4852,VALID,0,VALID,23.5256,VALID,154,VALID,0.301172,
2011-11-28, 00:48:05,VALID,997.408,VALID,0,VALID,94.4776,VALID,0,VALID,23.5433,VALID,154,VALID,0.210156,
2011-11-28, 00:49:05,VALID,997.37,VALID,0,VALID,94.4623,VALID,0,VALID,23.5823,VALID,154,VALID,0,
2011-11-28, 00:50:05,VALID,997.356,VALID,0,VALID,94.4852,VALID,0,VALID,23.5433,VALID,154,VALID,0,
2011-11-28, 00:51:05,VALID,997.353,VALID,0,VALID,94.5081,VALID,0,VALID,23.5061,VALID,154,VALID,0.609375,
2011-11-28, 00:52:05,VALID,997.328,VALID,0,VALID,94.5081,VALID,0,VALID,23.4653,VALID,154,VALID,0.580469,
2011-11-28, 00:53:05,VALID,997.306,VALID,0,VALID,94.5386,VALID,0,VALID,23.4475,VALID,154,VALID,0.361328,
2011-11-28, 00:54:05,VALID,997.284,VALID,0,VALID,94.531,VALID,0,VALID,23.4085,VALID,154,VALID,0.1375,
2011-11-28, 00:55:05,VALID,997.262,VALID,0,VALID,94.5691,VALID,0,VALID,23.3305,VALID,154,VALID,0.0367187,
2011-11-28, 00:56:05,VALID,997.266,VALID,0,VALID,94.5844,VALID,0,VALID,23.2329,VALID,154,VALID,0,
2011-11-28, 00:57:05,VALID,997.267,VALID,0,VALID,94.592,VALID,0,VALID,23.2329,VALID,153,VALID,0.664844,
2011-11-28, 00:58:05,VALID,997.258,VALID,0,VALID,94.5539,VALID,0,VALID,23.3092,VALID,108,VALID,0.860156,
2011-11-28, 00:59:05,VALID,997.255,VALID,0,VALID,94.5081,VALID,0,VALID,23.428,VALID,102,VALID,1.08516,
2011-11-28, 01:00:05,VALID,997.248,VALID,0,VALID,94.4928,VALID,0,VALID,23.4671,VALID,92,VALID,1.03633,
2011-11-28, 01:01:05,VALID,997.21,VALID,0,VALID,94.5005,VALID,0,VALID,23.4458,VALID,92,VALID,1.00117,
2011-11-28, 01:02:05,VALID,997.195,VALID,0,VALID,94.5234,VALID,0,VALID,23.3872,VALID,92,VALID,0.932422,
2011-11-28, 01:03:05,VALID,997.177,VALID,0,VALID,94.5386,VALID,0,VALID,23.389,VALID,92,VALID,0.698047,
2011-11-28, 01:04:05,VALID,997.12,VALID,0,VALID,94.5539,VALID,0,VALID,23.3287,VALID,73,VALID,0.803516,
2011-11-28, 01:05:05,VALID,997.12,VALID,0,VALID,94.5615,VALID,0,VALID,23.311,VALID,48,VALID,0.978906,
2011-11-28, 01:06:05,VALID,997.104,VALID,0,VALID,94.5844,VALID,0,VALID,23.2117,VALID,43,VALID,1.00508,
2011-11-28, 01:07:05,VALID,997.098,VALID,0,VALID,94.5844,VALID,0.104696,VALID,23.1744,VALID,33,VALID,0.757031,
2011-11-28, 01:08:05,VALID,997.071,VALID,0,VALID,94.5997,VALID,0,VALID,23.1159,VALID,33,VALID,0.866797,
2011-11-28, 01:09:05,VALID,997.065,VALID,0,VALID,94.6302,VALID,0.104696,VALID,23.0946,VALID,33,VALID,0.733594,
2011-11-28, 01:10:05,VALID,997.073,VALID,0,VALID,94.6226,VALID,0.104696,VALID,23.0361,VALID,33,VALID,0.721094,
2011-11-28, 01:11:05,VALID,997.028,VALID,0,VALID,94.6302,VALID,0,VALID,23.0166,VALID,33,VALID,0.547266,
2011-11-28, 01:12:05,VALID,997.03,VALID,0,VALID,94.6226,VALID,0,VALID,23.0166,VALID,33,VALID,0.460938,
2011-11-28, 01:13:05,VALID,997.025,VALID,0,VALID,94.6149,VALID,0,VALID,23.0378,VALID,33,VALID,0.432422,
2011-11-28, 01:14:05,VALID,997.066,VALID,0,VALID,94.6226,VALID,0,VALID,23.0964,VALID,33,VALID,0.346875,
2011-11-28, 01:15:05,VALID,997.052,VALID,0,VALID,94.5844,VALID,0,VALID,23.0946,VALID,33,VALID,0.244531,
2011-11-28, 01:16:05,VALID,997.075,VALID,0,VALID,94.592,VALID,0,VALID,23.1159,VALID,33,VALID,0.339844,
2011-11-28, 01:17:05,VALID,997.057,VALID,0,VALID,94.592,VALID,0,VALID,23.1159,VALID,33,VALID,0.167578,
2011-11-28, 01:18:05,VALID,997.042,VALID,0,VALID,94.592,VALID,0,VALID,23.1141,VALID,33,VALID,0.207422,
2011-11-28, 01:19:05,VALID,997.06,VALID,0,VALID,94.6149,VALID,0,VALID,23.1159,VALID,33,VALID,0.330078,
2011-11-28, 01:20:05,VALID,997.054,VALID,0,VALID,94.592,VALID,0,VALID,23.1159,VALID,33,VALID,0.504297,
2011-11-28, 01:21:05,VALID,997.033,VALID,0,VALID,94.5844,VALID,0,VALID,23.1141,VALID,33,VALID,0.617969,
2011-11-28, 01:22:05,VALID,997.033,VALID,0,VALID,94.5768,VALID,0,VALID,23.1354,VALID,37,VALID,0.624609,
2011-11-28, 01:23:05,VALID,997.026,VALID,0,VALID,94.5768,VALID,0,VALID,23.1549,VALID,41,VALID,0.699609,
2011-11-28, 01:24:05,VALID,997.016,VALID,0,VALID,94.5691,VALID,0,VALID,23.1549,VALID,65,VALID,0.895312,
2011-11-28, 01:25:05,VALID,997.033,VALID,0,VALID,94.5691,VALID,0,VALID,23.1141,VALID,65,VALID,1.04609,
2011-11-28, 01:26:05,VALID,997.041,VALID,0,VALID,94.5691,VALID,0,VALID,23.1354,VALID,65,VALID,1.01172,
2011-11-28, 01:27:05,VALID,997.045,VALID,0,VALID,94.5768,VALID,0,VALID,23.0751,VALID,65,VALID,1.00664,
2011-11-28, 01:28:05,VALID,997.005,VALID,0,VALID,94.5768,VALID,0,VALID,23.1354,VALID,65,VALID,0.935938,
2011-11-28, 01:29:05,VALID,997.004,VALID,0,VALID,94.5691,VALID,0,VALID,23.1354,VALID,65,VALID,0.878516,
2011-11-28, 01:30:05,VALID,997.014,VALID,0,VALID,94.5768,VALID,0,VALID,23.1336,VALID,65,VALID,0.901563,
2011-11-28, 01:31:05,VALID,997.048,VALID,0,VALID,94.5691,VALID,0,VALID,23.1141,VALID,65,VALID,0.793359,
2011-11-28, 01:32:05,VALID,997.01,VALID,0,VALID,94.5768,VALID,0,VALID,23.1159,VALID,55,VALID,0.767187,
2011-11-28, 01:33:05,VALID,996.997,VALID,0,VALID,94.5997,VALID,0,VALID,23.0556,VALID,39,VALID,0.86875,
2011-11-28, 01:34:05,VALID,996.995,VALID,0,VALID,94.5768,VALID,0,VALID,23.0556,VALID,26,VALID,0.859375,
2011-11-28, 01:35:05,VALID,996.968,VALID,0,VALID,94.5768,VALID,0,VALID,23.0946,VALID,21,VALID,0.908203,
2011-11-28, 01:36:05,VALID,996.975,VALID,0,VALID,94.5768,VALID,0,VALID,23.1354,VALID,360,VALID,0.730078,
2011-11-28, 01:37:05,VALID,996.969,VALID,0,VALID,94.5615,VALID,0,VALID,23.1336,VALID,360,VALID,0.978125,
2011-11-28, 01:38:05,VALID,996.949,VALID,0,VALID,94.5462,VALID,0,VALID,23.1531,VALID,360,VALID,0.942578,
2011-11-28, 01:39:05,VALID,996.93,VALID,0,VALID,94.5462,VALID,0,VALID,23.1744,VALID,360,VALID,1.04766,
2011-11-28, 01:40:05,VALID,996.947,VALID,0,VALID,94.5539,VALID,0,VALID,23.1744,VALID,2,VALID,1.12148,
2011-11-28, 01:41:05,VALID,996.911,VALID,0,VALID,94.5691,VALID,0,VALID,23.1744,VALID,6,VALID,1.01719,
2011-11-28, 01:42:05,VALID,996.871,VALID,0,VALID,94.5615,VALID,0,VALID,23.1549,VALID,15,VALID,0.917578,
2011-11-28, 01:43:05,VALID,996.875,VALID,0,VALID,94.5615,VALID,0,VALID,23.1141,VALID,33,VALID,0.964844,
2011-11-28, 01:44:05,VALID,996.838,VALID,0,VALID,94.5768,VALID,0,VALID,23.1354,VALID,33,VALID,0.850391,
2011-11-28, 01:45:05,VALID,996.843,VALID,0,VALID,94.531,VALID,0,VALID,23.1939,VALID,33,VALID,0.704687,
2011-11-28, 01:46:05,VALID,996.828,VALID,0,VALID,94.5615,VALID,0,VALID,23.1744,VALID,33,VALID,0.665625,
2011-11-28, 01:47:05,VALID,996.802,VALID,0,VALID,94.5768,VALID,0,VALID,23.0946,VALID,33,VALID,0.7125,
2011-11-28, 01:48:05,VALID,996.81,VALID,0,VALID,94.5844,VALID,0,VALID,23.0556,VALID,40,VALID,0.744531,
2011-11-28, 01:49:05,VALID,996.792,VALID,0,VALID,94.5844,VALID,0,VALID,23.0378,VALID,40,VALID,0.748438,
2011-11-28, 01:50:05,VALID,996.823,VALID,0,VALID,94.6073,VALID,0,VALID,23.0378,VALID,40,VALID,0.730469,
2011-11-28, 01:51:05,VALID,996.784,VALID,0,VALID,94.6149,VALID,0,VALID,23.0183,VALID,40,VALID,0.6625,
2011-11-28, 01:52:05,VALID,996.776,VALID,0,VALID,94.5997,VALID,0,VALID,23.0183,VALID,40,VALID,0.722656,
2011-11-28, 01:53:05,VALID,996.789,VALID,0,VALID,94.5844,VALID,0,VALID,23.0378,VALID,40,VALID,0.718359,
2011-11-28, 01:54:05,VALID,996.757,VALID,0,VALID,94.5768,VALID,0,VALID,23.0361,VALID,40,VALID,0.582422,
2011-11-28, 01:55:05,VALID,996.763,VALID,0,VALID,94.5844,VALID,0,VALID,23.0378,VALID,40,VALID,0.327344,
2011-11-28, 01:56:05,VALID,996.746,VALID,0,VALID,94.5997,VALID,0,VALID,23.0166,VALID,40,VALID,0.658594,
2011-11-28, 01:57:05,VALID,996.705,VALID,0,VALID,94.5844,VALID,0,VALID,23.0769,VALID,40,VALID,0.703125,
2011-11-28, 01:58:05,VALID,996.71,VALID,0,VALID,94.592,VALID,0,VALID,23.0964,VALID,40,VALID,0.709766,
2011-11-28, 01:59:05,VALID,996.662,VALID,0,VALID,94.5615,VALID,0,VALID,23.1159,VALID,56,VALID,0.828516,
2011-11-28, 02:00:05,VALID,996.649,VALID,0,VALID,94.5768,VALID,0,VALID,23.1141,VALID,68,VALID,0.980078,
2011-11-28, 02:01:05,VALID,996.637,VALID,0,VALID,94.5844,VALID,0,VALID,23.1159,VALID,72,VALID,0.837109,
2011-11-28, 02:02:05,VALID,996.605,VALID,0,VALID,94.5844,VALID,0,VALID,23.0751,VALID,76,VALID,0.792188,
2011-11-28, 02:03:05,VALID,996.607,VALID,0,VALID,94.5691,VALID,0,VALID,23.0769,VALID,95,VALID,0.833984,
2011-11-28, 02:04:05,VALID,996.59,VALID,0,VALID,94.5997,VALID,0,VALID,23.0556,VALID,99,VALID,0.785937,
2011-11-28, 02:05:05,VALID,996.598,VALID,0,VALID,94.6073,VALID,0.104696,VALID,23.0361,VALID,102,VALID,0.842188,
2011-11-28, 02:06:05,VALID,996.559,VALID,0,VALID,94.6073,VALID,0.104696,VALID,23.0166,VALID,102,VALID,0.847266,
2011-11-28, 02:07:05,VALID,996.576,VALID,0,VALID,94.5997,VALID,0,VALID,23.0183,VALID,102,VALID,0.721484,
2011-11-28, 02:08:05,VALID,996.568,VALID,0,VALID,94.6149,VALID,0,VALID,23.0183,VALID,102,VALID,0.459375,
2011-11-28, 02:09:05,VALID,996.536,VALID,0,VALID,94.6073,VALID,0,VALID,22.9988,VALID,102,VALID,0.446484,
2011-11-28, 02:10:05,VALID,996.557,VALID,0,VALID,94.6073,VALID,0,VALID,23.0183,VALID,102,VALID,0.479688,
2011-11-28, 02:11:05,VALID,996.497,VALID,0,VALID,94.5691,VALID,0,VALID,23.0964,VALID,102,VALID,0.569531,
2011-11-28, 02:12:05,VALID,996.53,VALID,0,VALID,94.5539,VALID,0,VALID,23.0964,VALID,102,VALID,0.533203,
2011-11-28, 02:13:05,VALID,996.527,VALID,0,VALID,94.5691,VALID,0,VALID,23.0964,VALID,117,VALID,0.673828,
2011-11-28, 02:14:05,VALID,996.532,VALID,0,VALID,94.5539,VALID,0,VALID,23.0964,VALID,139,VALID,0.460547,
2011-11-28, 02:15:05,VALID,996.508,VALID,0,VALID,94.5768,VALID,0,VALID,23.0964,VALID,139,VALID,0.348437,
2011-11-28, 02:16:05,VALID,996.488,VALID,0,VALID,94.5844,VALID,0,VALID,23.0769,VALID,139,VALID,0.326562,
2011-11-28, 02:17:05,VALID,996.468,VALID,0,VALID,94.5844,VALID,0,VALID,23.0769,VALID,139,VALID,0.291797,
2011-11-28, 02:18:05,VALID,996.461,VALID,0,VALID,94.592,VALID,0,VALID,23.0769,VALID,139,VALID,0.185547,
2011-11-28, 02:19:05,VALID,996.439,VALID,0,VALID,94.592,VALID,0,VALID,23.0769,VALID,139,VALID,0,
2011-11-28, 02:20:05,VALID,996.437,VALID,0,VALID,94.5768,VALID,0,VALID,23.0964,VALID,139,VALID,0,
2011-11-28, 02:21:05,VALID,996.469,VALID,0,VALID,94.5844,VALID,0,VALID,23.0946,VALID,139,VALID,0,
2011-11-28, 02:22:05,VALID,996.483,VALID,0,VALID,94.592,VALID,0,VALID,23.0769,VALID,139,VALID,0,
2011-11-28, 02:23:05,VALID,996.518,VALID,0,VALID,94.592,VALID,0,VALID,23.0378,VALID,47,VALID,0.774609,
2011-11-28, 02:24:05,VALID,996.491,VALID,0,VALID,94.592,VALID,0,VALID,23.0573,VALID,47,VALID,0.589844,
2011-11-28, 02:25:05,VALID,996.509,VALID,0,VALID,94.5997,VALID,0,VALID,22.9793,VALID,47,VALID,0.59375,
2011-11-28, 02:26:05,VALID,996.507,VALID,0,VALID,94.6073,VALID,0,VALID,22.9598,VALID,47,VALID,0.489453,
2011-11-28, 02:27:05,VALID,996.485,VALID,0,VALID,94.6302,VALID,0,VALID,22.9598,VALID,47,VALID,0.389062,
2011-11-28, 02:28:05,VALID,996.509,VALID,0,VALID,94.6073,VALID,0,VALID,22.9988,VALID,47,VALID,0.293359,
2011-11-28, 02:29:05,VALID,996.503,VALID,0,VALID,94.6226,VALID,0,VALID,22.9971,VALID,47,VALID,0.215625,
2011-11-28, 02:30:05,VALID,996.51,VALID,0,VALID,94.5997,VALID,0,VALID,22.9971,VALID,47,VALID,0,
2011-11-28, 02:31:05,VALID,996.514,VALID,0,VALID,94.6073,VALID,0,VALID,23.0378,VALID,47,VALID,0,
2011-11-28, 02:32:05,VALID,996.527,VALID,0,VALID,94.5997,VALID,0,VALID,23.0183,VALID,47,VALID,0,
2011-11-28, 02:33:05,VALID,996.549,VALID,0,VALID,94.5997,VALID,0,VALID,22.9988,VALID,47,VALID,0,
2011-11-28, 02:34:05,VALID,996.541,VALID,0,VALID,94.6378,VALID,0,VALID,22.9598,VALID,47,VALID,0,
2011-11-28, 02:35:05,VALID,996.546,VALID,0,VALID,94.6149,VALID,0,VALID,22.9598,VALID,47,VALID,0,
2011-11-28, 02:36:05,VALID,996.573,VALID,0,VALID,94.6302,VALID,0,VALID,22.9208,VALID,47,VALID,0,
2011-11-28, 02:37:05,VALID,996.588,VALID,0,VALID,94.6302,VALID,0,VALID,22.8818,VALID,47,VALID,0,
2011-11-28, 02:38:05,VALID,996.559,VALID,0,VALID,94.6226,VALID,0,VALID,22.88,VALID,47,VALID,0,
2011-11-28, 02:39:05,VALID,996.597,VALID,0,VALID,94.6226,VALID,0,VALID,22.9403,VALID,47,VALID,0,
2011-11-28, 02:40:05,VALID,996.623,VALID,0,VALID,94.5997,VALID,0,VALID,22.9598,VALID,47,VALID,0,
2011-11-28, 02:41:05,VALID,996.592,VALID,0,VALID,94.5997,VALID,0,VALID,22.9988,VALID,47,VALID,0,
2011-11-28, 02:42:05,VALID,996.608,VALID,0,VALID,94.592,VALID,0,VALID,22.9793,VALID,47,VALID,0,
2011-11-28, 02:43:05,VALID,996.64,VALID,0,VALID,94.5844,VALID,0,VALID,22.9403,VALID,47,VALID,0,
2011-11-28, 02:44:05,VALID,996.658,VALID,0,VALID,94.6226,VALID,0,VALID,22.919,VALID,47,VALID,0,
2011-11-28, 02:45:05,VALID,996.654,VALID,0,VALID,94.6226,VALID,0,VALID,22.9208,VALID,47,VALID,0,
2011-11-28, 02:46:05,VALID,996.651,VALID,0,VALID,94.5844,VALID,0,VALID,23.0183,VALID,93,VALID,0,
2011-11-28, 02:47:05,VALID,996.64,VALID,0,VALID,94.5615,VALID,0,VALID,23.1159,VALID,93,VALID,0,
2011-11-28, 02:48:05,VALID,996.667,VALID,0,VALID,94.5539,VALID,0,VALID,23.1549,VALID,165,VALID,0,
2011-11-28, 02:49:05,VALID,996.661,VALID,0,VALID,94.531,VALID,0,VALID,23.1531,VALID,165,VALID,0,
2011-11-28, 02:50:05,VALID,996.657,VALID,0,VALID,94.5615,VALID,0,VALID,23.1744,VALID,165,VALID,0,
2011-11-28, 02:51:05,VALID,996.698,VALID,0,VALID,94.5691,VALID,0,VALID,23.1549,VALID,165,VALID,0,
2011-11-28, 02:52:05,VALID,996.751,VALID,0,VALID,94.5691,VALID,0,VALID,23.0751,VALID,165,VALID,0,
2011-11-28, 02:53:05,VALID,996.713,VALID,0,VALID,94.592,VALID,0,VALID,23.0769,VALID,165,VALID,0,
2011-11-28, 02:54:05,VALID,996.717,VALID,0,VALID,94.6302,VALID,0,VALID,22.9988,VALID,165,VALID,0,
2011-11-28, 02:55:05,VALID,996.716,VALID,0,VALID,94.6378,VALID,0,VALID,22.8818,VALID,165,VALID,0,
2011-11-28, 02:56:05,VALID,996.706,VALID,0,VALID,94.6531,VALID,0,VALID,22.802,VALID,165,VALID,0,
2011-11-28, 02:57:05,VALID,996.661,VALID,0,VALID,94.6683,VALID,0,VALID,22.7842,VALID,165,VALID,0,
2011-11-28, 02:58:05,VALID,996.668,VALID,0,VALID,94.6836,VALID,0,VALID,22.724,VALID,165,VALID,0,
2011-11-28, 02:59:05,VALID,996.674,VALID,0,VALID,94.6912,VALID,0,VALID,22.7257,VALID,165,VALID,0,
2011-11-28, 03:00:05,VALID,996.642,VALID,0,VALID,94.676,VALID,0,VALID,22.7664,VALID,165,VALID,0,
2011-11-28, 03:01:05,VALID,996.638,VALID,0,VALID,94.6454,VALID,0,VALID,22.786,VALID,165,VALID,0,
2011-11-28, 03:02:05,VALID,996.66,VALID,0,VALID,94.6531,VALID,0,VALID,22.8232,VALID,165,VALID,0,
2011-11-28, 03:03:05,VALID,996.652,VALID,0,VALID,94.6378,VALID,0,VALID,22.864,VALID,165,VALID,0,
2011-11-28, 03:04:05,VALID,996.646,VALID,0,VALID,94.6226,VALID,0,VALID,22.903,VALID,165,VALID,0,
2011-11-28, 03:05:05,VALID,996.672,VALID,0,VALID,94.6226,VALID,0,VALID,22.8818,VALID,165,VALID,0,
2011-11-28, 03:06:05,VALID,996.674,VALID,0,VALID,94.6149,VALID,0,VALID,22.8818,VALID,165,VALID,0,
2011-11-28, 03:07:05,VALID,996.705,VALID,0,VALID,94.6149,VALID,0,VALID,22.8232,VALID,165,VALID,0,
2011-11-28, 03:08:05,VALID,996.696,VALID,0,VALID,94.6073,VALID,0,VALID,22.8445,VALID,165,VALID,0,
2011-11-28, 03:09:05,VALID,996.71,VALID,0,VALID,94.6378,VALID,0,VALID,22.8835,VALID,165,VALID,0,
2011-11-28, 03:10:05,VALID,996.714,VALID,0,VALID,94.6073,VALID,0,VALID,22.8623,VALID,165,VALID,0,
2011-11-28, 03:11:05,VALID,996.737,VALID,0,VALID,94.6149,VALID,0,VALID,22.8835,VALID,165,VALID,0,
2011-11-28, 03:12:05,VALID,996.741,VALID,0,VALID,94.6073,VALID,0,VALID,22.903,VALID,165,VALID,0,
2011-11-28, 03:13:05,VALID,996.755,VALID,0,VALID,94.5997,VALID,0,VALID,22.8835,VALID,165,VALID,0,
2011-11-28, 03:14:05,VALID,996.74,VALID,0,VALID,94.5844,VALID,0,VALID,22.903,VALID,165,VALID,0,
2011-11-28, 03:15:05,VALID,996.777,VALID,0,VALID,94.5844,VALID,0,VALID,22.942,VALID,165,VALID,0,
2011-11-28, 03:16:05,VALID,996.764,VALID,0,VALID,94.5691,VALID,0,VALID,23.0006,VALID,165,VALID,0,
2011-11-28, 03:17:05,VALID,996.775,VALID,0,VALID,94.5462,VALID,0,VALID,23.0396,VALID,165,VALID,0,
2011-11-28, 03:18:05,VALID,996.761,VALID,0,VALID,94.5234,VALID,0,VALID,23.0573,VALID,162,VALID,0,
2011-11-28, 03:19:05,VALID,996.754,VALID,0,VALID,94.5462,VALID,0,VALID,23.0378,VALID,162,VALID,0,
2011-11-28, 03:20:05,VALID,996.785,VALID,0,VALID,94.5539,VALID,0,VALID,23.0396,VALID,162,VALID,0,
2011-11-28, 03:21:05,VALID,996.815,VALID,0,VALID,94.5844,VALID,0,VALID,22.9811,VALID,162,VALID,0,
2011-11-28, 03:22:05,VALID,996.834,VALID,0,VALID,94.592,VALID,0,VALID,22.942,VALID,162,VALID,0,
2011-11-28, 03:23:05,VALID,996.804,VALID,0,VALID,94.5997,VALID,0,VALID,22.9225,VALID,162,VALID,0,
2011-11-28, 03:24:05,VALID,996.863,VALID,0,VALID,94.592,VALID,0,VALID,22.9225,VALID,162,VALID,0,
2011-11-28, 03:25:05,VALID,996.842,VALID,0,VALID,94.592,VALID,0,VALID,22.942,VALID,162,VALID,0,
2011-11-28, 03:26:05,VALID,996.855,VALID,0,VALID,94.5691,VALID,0,VALID,22.942,VALID,162,VALID,0,
2011-11-28, 03:27:05,VALID,996.928,VALID,0,VALID,94.5997,VALID,0,VALID,22.9403,VALID,162,VALID,0,
2011-11-28, 03:28:05,VALID,996.918,VALID,0,VALID,94.5768,VALID,0,VALID,22.9403,VALID,57,VALID,0.580859,
2011-11-28, 03:29:04,VALID,996.988,VALID,0,VALID,94.592,VALID,0,VALID,22.9811,VALID,57,VALID,0.410547,
2011-11-28, 03:30:04,VALID,996.991,VALID,0,VALID,94.6073,VALID,0,VALID,22.9811,VALID,57,VALID,0.302734,
2011-11-28, 03:31:04,VALID,996.995,VALID,0,VALID,94.592,VALID,0,VALID,22.9225,VALID,57,VALID,0.359375,
2011-11-28, 03:32:04,VALID,996.987,VALID,0,VALID,94.6302,VALID,0,VALID,22.903,VALID,57,VALID,0.223828,
2011-11-28, 03:33:04,VALID,997.01,VALID,0,VALID,94.6378,VALID,0,VALID,22.903,VALID,57,VALID,0.0902344,
2011-11-28, 03:34:04,VALID,996.959,VALID,0,VALID,94.6378,VALID,0,VALID,22.8623,VALID,57,VALID,0.05,
2011-11-28, 03:35:04,VALID,996.961,VALID,0,VALID,94.6226,VALID,0,VALID,22.864,VALID,57,VALID,0.585938,
2011-11-28, 03:36:04,VALID,996.928,VALID,0,VALID,94.6226,VALID,0,VALID,22.8445,VALID,57,VALID,0.792578,
2011-11-28, 03:37:04,VALID,996.969,VALID,0,VALID,94.6378,VALID,0,VALID,22.8445,VALID,57,VALID,0.903516,
2011-11-28, 03:38:04,VALID,997.054,VALID,0,VALID,94.6149,VALID,0,VALID,22.903,VALID,57,VALID,1.05352,
2011-11-28, 03:39:04,VALID,997.051,VALID,0,VALID,94.5997,VALID,0,VALID,22.9013,VALID,57,VALID,1.03437,
2011-11-28, 03:40:04,VALID,997.071,VALID,0,VALID,94.6226,VALID,0,VALID,22.9208,VALID,60,VALID,0.930078,
2011-11-28, 03:41:04,VALID,997.046,VALID,0,VALID,94.6073,VALID,0,VALID,22.9013,VALID,60,VALID,0.713281,
2011-11-28, 03:42:04,VALID,997.061,VALID,0,VALID,94.6226,VALID,0,VALID,22.942,VALID,60,VALID,0.483594,
2011-11-28, 03:43:04,VALID,997.047,VALID,0,VALID,94.5997,VALID,0,VALID,22.942,VALID,60,VALID,0.407422,
2011-11-28, 03:44:04,VALID,997.083,VALID,0,VALID,94.6073,VALID,0,VALID,22.9225,VALID,60,VALID,0.202344,
2011-11-28, 03:45:04,VALID,997.07,VALID,0,VALID,94.6073,VALID,0,VALID,22.9208,VALID,60,VALID,0.0121094,
2011-11-28, 03:46:04,VALID,997.106,VALID,0,VALID,94.6149,VALID,0,VALID,22.9225,VALID,60,VALID,0,
2011-11-28, 03:47:04,VALID,997.058,VALID,0,VALID,94.5844,VALID,0,VALID,22.942,VALID,60,VALID,0,
2011-11-28, 03:48:04,VALID,997.069,VALID,0,VALID,94.6073,VALID,0,VALID,22.942,VALID,60,VALID,0,
2011-11-28, 03:49:04,VALID,997.076,VALID,0,VALID,94.6073,VALID,0,VALID,22.9598,VALID,60,VALID,0,
2011-11-28, 03:50:04,VALID,997.1,VALID,0,VALID,94.592,VALID,0,VALID,22.9811,VALID,60,VALID,0,